Location: Unspecified
(0.0000°N, 0.0000°E)
Time: 18:28:59
(UTC+00:00)

Courier 1B Rocket - All Passes

Search period start: 18 April 2019 00:00
Search period end: 28 April 2019 00:00
Orbit: 920 x 1202 km, 28.2° (Epoch: 17 April)

Date Brightness Start Highest point End Pass type
(mag) Time Alt. Az. Time Alt. Az. Time Alt. Az.
18 Apr - 01:31:18 10° SW 01:37:06 39° SSE 01:43:08 10° E night (unlit)
18 Apr - 03:24:15 10° WSW 03:30:33 56° NNW 03:37:17 10° NE visible
18 Apr - 05:20:19 10° WNW 05:24:38 17° NNW 05:29:08 10° NNE visible
18 Apr - 11:09:04 10° N 11:12:23 13° NNE 11:15:43 10° NE daylight
18 Apr - 13:00:02 10° NW 13:07:08 37° NNE 13:14:01 10° E daylight
18 Apr - 14:53:22 10° WNW 15:01:04 71° SSW 15:08:19 10° SE daylight
18 Apr - 16:49:33 10° WSW 16:54:57 22° SSW 17:00:08 10° SSE daylight
19 Apr - 00:30:58 10° SSW 00:36:00 25° SSE 00:41:08 10° E night (unlit)
19 Apr - 02:23:10 10° WSW 02:29:29 86° NNW 02:36:11 10° ENE visible
19 Apr - 04:18:02 10° WNW 04:23:14 24° NNW 04:28:42 10° NNE visible
19 Apr - 11:59:19 10° NNW 12:05:39 26° NNE 12:11:53 10° E daylight
19 Apr - 13:51:57 10° NW 13:59:46 80° NNE 14:07:16 10° ESE daylight
19 Apr - 15:46:59 10° W 15:53:37 32° SSW 15:59:55 10° SSE daylight
19 Apr - 23:31:00 10° SSW 23:34:49 16° SSE 23:38:38 10° ESE night (unlit)
20 Apr - 01:22:19 10° SW 01:28:30 62° SSE 01:34:53 10° ENE night (unlit)
20 Apr - 03:16:13 10° W 03:21:59 35° NNW 03:28:04 10° NE visible
20 Apr - 05:14:24 10° NW 05:16:23 11° NNW 05:18:24 10° N visible
20 Apr - 10:58:55 10° NNW 11:04:04 19° NNE 11:09:12 10° ENE daylight
20 Apr - 12:50:47 10° NW 12:58:25 55° NNE 13:05:53 10° ESE daylight
20 Apr - 14:44:54 10° WNW 14:52:18 48° SSW 14:59:22 10° SE daylight
20 Apr - 16:42:34 10° WSW 16:46:31 15° SSW 16:50:21 10° S daylight
20 Apr - 22:31:56 10° S 22:33:28 11° SSE 22:34:58 10° SE night (unlit)
21 Apr - 00:21:42 10° SW 00:27:28 39° SSE 00:33:20 10° E night (unlit)
21 Apr - 02:14:46 10° WSW 02:20:53 54° NNW 02:27:16 10° NE visible
21 Apr - 04:11:04 10° WNW 04:14:52 16° NNW 04:18:47 10° NNE visible
21 Apr - 09:59:03 10° N 10:02:22 13° NNE 10:05:42 10° NE daylight
21 Apr - 11:49:53 10° NW 11:57:01 38° NNE 12:04:07 10° E daylight
21 Apr - 13:43:10 10° WNW 13:50:58 70° SSW 13:58:31 10° SE daylight
21 Apr - 15:39:20 10° WSW 15:45:01 22° SSW 15:50:30 10° SSE daylight
21 Apr - 23:21:17 10° SSW 23:26:23 26° SSE 23:31:28 10° E night (unlit)
22 Apr - 01:13:37 10° WSW 01:19:52 83° NNW 01:26:17 10° ENE night (unlit)
22 Apr - 03:08:39 10° WNW 03:13:31 23° NNW 03:18:33 10° NNE visible
22 Apr - 10:49:15 10° NNW 10:55:33 27° NNE 11:01:55 10° E daylight
22 Apr - 12:41:47 10° WNW 12:49:39 82° NNE 12:57:24 10° ESE daylight
22 Apr - 14:36:48 10° W 14:43:35 33° SSW 14:50:10 10° SSE daylight
22 Apr - 16:37:15 10° SSW 16:38:14 10° SSW 16:39:12 10° SSW daylight
22 Apr - 22:21:10 10° SSW 22:25:11 17° SSE 22:29:08 10° ESE night (unlit)
23 Apr - 00:12:41 10° SW 00:18:53 63° SSE 00:25:07 10° ENE night (unlit)
23 Apr - 02:06:46 10° W 02:12:20 33° NNW 02:18:04 10° NE visible
23 Apr - 09:48:57 10° NNW 09:54:00 19° NNE 09:59:08 10° ENE daylight
23 Apr - 11:40:41 10° NW 11:48:17 57° NNE 11:55:55 10° ESE daylight
23 Apr - 13:34:44 10° WNW 13:42:12 47° SSW 13:49:31 10° SE daylight
23 Apr - 15:32:18 10° WSW 15:36:34 16° SSW 15:40:44 10° S daylight
23 Apr - 21:21:38 10° S 21:23:48 12° SSE 21:25:57 10° SE night (unlit)
23 Apr - 23:11:59 10° SW 23:17:53 40° SSE 23:23:40 10° E night (unlit)
24 Apr - 01:05:14 10° WSW 01:11:16 51° NNW 01:17:24 10° NE night (unlit)
24 Apr - 03:01:50 10° NW 03:05:10 15° NNW 03:08:34 10° N visible
24 Apr - 08:49:17 10° N 08:52:22 13° NNE 08:55:30 10° NE daylight
24 Apr - 10:39:52 10° NW 10:46:54 39° NNE 10:54:05 10° E daylight
24 Apr - 12:33:04 10° WNW 12:40:50 69° SSW 12:48:35 10° SE daylight
24 Apr - 14:29:09 10° WSW 14:35:00 23° SSW 14:40:43 10° SSE daylight
24 Apr - 22:11:27 10° SSW 22:16:46 27° SSE 22:21:56 10° E night (unlit)
25 Apr - 00:03:59 10° WSW 00:10:17 81° NNW 00:16:33 10° ENE night (unlit)
25 Apr - 01:59:15 10° WNW 02:03:51 21° NNW 02:08:34 10° NNE visible
25 Apr - 09:39:20 10° NNW 09:45:29 27° NNE 09:51:48 10° E daylight
25 Apr - 11:31:45 10° WNW 11:39:29 83° NNE 11:47:22 10° ESE daylight
25 Apr - 13:26:40 10° W 13:33:30 32° SSW 13:40:16 10° SSE daylight
25 Apr - 15:26:32 10° SSW 15:28:17 11° SSW 15:30:01 10° S daylight
25 Apr - 21:11:08 10° SSW 21:15:31 18° SSE 21:19:47 10° ESE night (unlit)
25 Apr - 23:02:57 10° SW 23:09:18 66° SSE 23:15:29 10° ENE night (unlit)
26 Apr - 00:57:14 10° W 01:02:43 32° NNW 01:08:14 10° NNE night (unlit)
26 Apr - 08:39:10 10° NNW 08:43:59 18° NNE 08:48:57 10° ENE daylight
26 Apr - 10:30:44 10° NW 10:38:09 58° NNE 10:45:50 10° ESE daylight
26 Apr - 12:24:40 10° W 12:32:05 47° SSW 12:39:31 10° SE daylight
26 Apr - 14:22:08 10° WSW 14:26:33 16° SSW 14:30:55 10° SSE daylight
26 Apr - 20:11:12 10° S 20:14:06 13° SSE 20:16:55 10° SE visible
26 Apr - 22:02:06 10° SW 22:08:16 42° SSE 22:14:09 10° E night (unlit)
26 Apr - 23:55:35 10° WSW 00:01:41 50° NNW 00:07:41 10° NE night (unlit)
27 Apr - 01:52:31 10° NW 01:55:30 14° NNW 01:58:31 10° N night (unlit)
27 Apr - 07:39:45 10° N 07:42:26 12° NNE 07:45:09 10° NE daylight
27 Apr - 09:30:01 10° NW 09:36:48 39° NNE 09:43:55 10° E daylight
27 Apr - 11:23:05 10° WNW 11:30:41 68° SSW 11:38:30 10° SE daylight
27 Apr - 13:19:05 10° WSW 13:24:55 23° SSW 13:30:45 10° SSE daylight
27 Apr - 21:01:26 10° SSW 21:07:06 28° SSE 21:12:31 10° E visible
27 Apr - 22:54:13 10° WSW 23:00:41 78° NNW 23:06:56 10° NE night (unlit)
